DLH10F EDDL-LKPR

Flight info

Callsign DLH10F
Flight time 0h 49m
Altitude 30000
Route MEVEL1Z MEVEL L179 MISRI Z851 ELTUK Z47 EXOBA DCT NOMKA DCT SUVUT L620 PIKIB T620 LALUK DCT GOLOP
Aircraft A359/H-SDE2E3GHIJ3J4J5LM1ORWXY/LB1D1

Departure

Time 2026-05-06 20:02
Airport Düsseldorf Airport (EDDL)

Arrival

Time 2026-05-06 20:51
Airport Václav Havel Airport Prague (LKPR)
Time Latitude Longitude Altitude Speed Heading
2026-05-06 19:37 51.27594 6.76175 137 ft 0 kts 45°
2026-05-06 19:51 51.27585 6.76161 137 ft 2 kts 42°
2026-05-06 19:52 51.27572 6.76144 137 ft 2 kts 36°
2026-05-06 19:52 51.27558 6.76130 137 ft 2 kts 25°
2026-05-06 19:52 51.27543 6.76122 136 ft 2 kts
2026-05-06 19:52 51.27526 6.76121 136 ft 2 kts
2026-05-06 19:53 51.27510 6.76114 136 ft 2 kts 34°
2026-05-06 19:53 51.27498 6.76097 136 ft 2 kts 51°
2026-05-06 19:53 51.27488 6.76075 136 ft 2 kts 59°
2026-05-06 19:53 51.27482 6.76056 137 ft 1 kts 62°
2026-05-06 19:54 51.27481 6.76053 137 ft 0 kts 63°
2026-05-06 19:56 51.27488 6.76077 136 ft 7 kts 63°
2026-05-06 19:56 51.27525 6.76112 136 ft 6 kts
2026-05-06 19:56 51.27577 6.76079 136 ft 12 kts 331°
2026-05-06 19:57 51.27666 6.76038 136 ft 14 kts
2026-05-06 19:57 51.27718 6.76029 136 ft 3 kts 356°
2026-05-06 19:57 51.27748 6.76039 136 ft 8 kts 11°
2026-05-06 19:57 51.27818 6.76034 136 ft 8 kts 334°
2026-05-06 19:58 51.27843 6.75951 137 ft 10 kts 274°
2026-05-06 19:58 51.27854 6.75807 137 ft 16 kts 282°
2026-05-06 19:58 51.27841 6.75604 127 ft 21 kts 232°
2026-05-06 19:58 51.27773 6.75455 124 ft 11 kts 247°
2026-05-06 19:59 51.27786 6.75391 124 ft 4 kts 319°
2026-05-06 19:59 51.27830 6.75358 128 ft 11 kts 334°
2026-05-06 19:59 51.27919 6.75288 125 ft 6 kts 334°
2026-05-06 19:59 51.27921 6.75287 125 ft 0 kts 334°
2026-05-06 20:00 51.27924 6.75284 125 ft 0 kts 334°
2026-05-06 20:00 51.27956 6.75271 126 ft 8 kts 354°
2026-05-06 20:01 51.28009 6.75303 124 ft 8 kts 50°
2026-05-06 20:01 51.28021 6.75329 125 ft 0 kts 52°
2026-05-06 20:01 51.28139 6.75574 132 ft 66 kts 52°
2026-05-06 20:02 51.28572 6.76482 141 ft 137 kts 53°
2026-05-06 20:02 51.29229 6.77837 667 ft 153 kts 50°
2026-05-06 20:02 51.29883 6.79206 1522 ft 159 kts 50°
2026-05-06 20:02 51.30571 6.80667 2299 ft 171 kts 51°
2026-05-06 20:03 51.31325 6.82267 3027 ft 188 kts 51°
2026-05-06 20:03 51.32146 6.84004 3756 ft 205 kts 51°
2026-05-06 20:03 51.33053 6.85923 4412 ft 227 kts 51°
2026-05-06 20:03 51.34051 6.88029 5045 ft 248 kts 51°
2026-05-06 20:04 51.35323 6.90004 5715 ft 263 kts 32°
2026-05-06 20:04 51.37058 6.91073 6477 ft 275 kts 12°
2026-05-06 20:04 51.38984 6.91612 7206 ft 288 kts
2026-05-06 20:04 51.40929 6.92086 7947 ft 276 kts
2026-05-06 20:05 51.42759 6.92824 8733 ft 268 kts 20°
2026-05-06 20:05 51.44397 6.94249 9522 ft 271 kts 34°
2026-05-06 20:05 51.45862 6.96234 10162 ft 287 kts 45°
2026-05-06 20:05 51.47075 6.98946 10660 ft 313 kts 58°
2026-05-06 20:06 51.48090 7.02208 11140 ft 338 kts 64°
2026-05-06 20:06 51.48967 7.05776 11661 ft 347 kts 68°
2026-05-06 20:06 51.49760 7.09464 12293 ft 351 kts 70°
2026-05-06 20:06 51.50531 7.13196 12943 ft 354 kts 70°
2026-05-06 20:07 51.51316 7.16955 13607 ft 357 kts 69°
2026-05-06 20:07 51.52130 7.20754 14217 ft 361 kts 69°
2026-05-06 20:07 51.52974 7.24594 14819 ft 366 kts 69°
2026-05-06 20:07 51.53840 7.28472 15438 ft 371 kts 69°
2026-05-06 20:08 51.54711 7.32345 16070 ft 376 kts 69°
2026-05-06 20:08 51.55609 7.36328 16724 ft 381 kts 69°
2026-05-06 20:08 51.56518 7.40368 17376 ft 387 kts 69°
2026-05-06 20:08 51.57437 7.44468 18051 ft 393 kts 69°
2026-05-06 20:09 51.58367 7.48624 18654 ft 398 kts 70°
2026-05-06 20:09 51.59305 7.52837 19254 ft 402 kts 70°
2026-05-06 20:09 51.60251 7.57092 19886 ft 405 kts 70°
2026-05-06 20:09 51.61202 7.61383 20478 ft 408 kts 70°
2026-05-06 20:10 51.62158 7.65704 21024 ft 411 kts 70°
2026-05-06 20:10 51.63119 7.70057 21545 ft 415 kts 70°
2026-05-06 20:10 51.64088 7.74453 22082 ft 418 kts 70°
2026-05-06 20:10 51.65060 7.78871 22619 ft 421 kts 70°
2026-05-06 20:11 51.66038 7.83329 23190 ft 424 kts 71°
2026-05-06 20:11 51.67024 7.87831 23682 ft 427 kts 71°
2026-05-06 20:11 51.67680 7.90831 23992 ft 429 kts 71°
2026-05-06 20:11 51.68672 7.95377 24468 ft 432 kts 71°
2026-05-06 20:12 51.69675 7.99981 24951 ft 435 kts 71°
2026-05-06 20:12 51.70677 8.04598 25443 ft 438 kts 71°
2026-05-06 20:12 51.71488 8.08337 25850 ft 441 kts 71°
2026-05-06 20:12 51.72502 8.13023 26355 ft 444 kts 71°
2026-05-06 20:13 51.73519 8.17739 26797 ft 447 kts 71°
2026-05-06 20:13 51.74546 8.22506 27190 ft 450 kts 71°
2026-05-06 20:13 51.75461 8.27286 27590 ft 452 kts 77°
2026-05-06 20:13 51.75968 8.32316 27997 ft 453 kts 86°
2026-05-06 20:14 51.75964 8.37407 28410 ft 454 kts 96°
2026-05-06 20:14 51.75569 8.42475 28832 ft 456 kts 101°
2026-05-06 20:14 51.74943 8.47504 29251 ft 457 kts 104°
2026-05-06 20:14 51.74210 8.52494 29679 ft 457 kts 105°
2026-05-06 20:15 51.73442 8.57493 29871 ft 463 kts 105°
2026-05-06 20:15 51.72658 8.62620 29879 ft 478 kts 105°
2026-05-06 20:15 51.71102 8.73227 29880 ft 488 kts 104°
2026-05-06 20:16 51.69595 8.83889 29877 ft 487 kts 104°
2026-05-06 20:16 51.68092 8.94533 29867 ft 488 kts 104°
2026-05-06 20:17 51.66582 9.05135 29858 ft 489 kts 104°
2026-05-06 20:17 51.65046 9.15808 29840 ft 489 kts 105°
2026-05-06 20:18 51.63498 9.26493 29835 ft 490 kts 105°
2026-05-06 20:18 51.61937 9.37187 29832 ft 491 kts 105°
2026-05-06 20:19 51.60364 9.47888 29831 ft 491 kts 106°
2026-05-06 20:19 51.58789 9.58537 29830 ft 492 kts 106°
2026-05-06 20:20 51.57194 9.69248 29826 ft 492 kts 107°
2026-05-06 20:20 51.55588 9.79942 29824 ft 492 kts 107°
2026-05-06 20:21 51.53973 9.90633 29820 ft 491 kts 107°
2026-05-06 20:21 51.52362 10.01235 29815 ft 491 kts 107°
2026-05-06 20:22 51.50720 10.11869 29819 ft 490 kts 108°
2026-05-06 20:22 51.48933 10.22436 29813 ft 489 kts 109°
2026-05-06 20:23 51.47115 10.32929 29813 ft 488 kts 109°
2026-05-06 20:23 51.45307 10.43435 29808 ft 488 kts 109°
2026-05-06 20:24 51.43505 10.53923 29806 ft 488 kts 109°
2026-05-06 20:24 51.41710 10.64335 29800 ft 488 kts 109°
2026-05-06 20:25 51.39895 10.74797 29803 ft 488 kts 109°
2026-05-06 20:25 51.38066 10.85263 29801 ft 488 kts 109°
2026-05-06 20:26 51.36226 10.95736 29798 ft 489 kts 109°
2026-05-06 20:26 51.34375 11.06213 29795 ft 489 kts 110°
2026-05-06 20:27 51.32513 11.16694 29796 ft 490 kts 110°
2026-05-06 20:27 51.30636 11.27185 29794 ft 491 kts 110°
2026-05-06 20:28 51.28751 11.37661 29793 ft 491 kts 110°
2026-05-06 20:28 51.26854 11.48152 29794 ft 491 kts 110°
2026-05-06 20:29 51.24948 11.58628 29790 ft 491 kts 110°
2026-05-06 20:29 51.23044 11.69037 29798 ft 492 kts 110°
2026-05-06 20:30 51.20148 11.84750 29790 ft 492 kts 110°
2026-05-06 20:31 51.18205 11.95220 29797 ft 492 kts 111°
2026-05-06 20:31 51.16249 12.05699 29788 ft 493 kts 111°
2026-05-06 20:32 51.14286 12.16161 29790 ft 493 kts 111°
2026-05-06 20:32 51.12322 12.26569 29793 ft 494 kts 111°
2026-05-06 20:33 51.10330 12.37067 29797 ft 494 kts 111°
2026-05-06 20:33 51.08333 12.47528 29802 ft 494 kts 111°
2026-05-06 20:34 51.06334 12.57959 29608 ft 490 kts 111°
2026-05-06 20:34 51.05352 12.63060 29140 ft 485 kts 111°
2026-05-06 20:34 51.04362 12.68192 28570 ft 480 kts 111°
2026-05-06 20:34 51.03383 12.73243 28035 ft 477 kts 111°
2026-05-06 20:35 51.02407 12.78267 27491 ft 474 kts 111°
2026-05-06 20:35 51.01438 12.83239 26956 ft 470 kts 111°
2026-05-06 20:35 51.00473 12.88185 26455 ft 466 kts 111°
2026-05-06 20:35 50.99514 12.93078 25929 ft 462 kts 111°
2026-05-06 20:36 50.98561 12.97932 25426 ft 457 kts 111°
2026-05-06 20:36 50.97620 13.02711 24938 ft 450 kts 111°
2026-05-06 20:36 50.96690 13.07431 24458 ft 444 kts 110°
2026-05-06 20:36 50.95785 13.12013 23994 ft 438 kts 110°
2026-05-06 20:37 50.94876 13.16600 23522 ft 432 kts 110°
2026-05-06 20:37 50.93977 13.21123 23006 ft 429 kts 110°
2026-05-06 20:37 50.93084 13.25607 22446 ft 426 kts 110°
2026-05-06 20:37 50.92191 13.30084 21913 ft 424 kts 110°
2026-05-06 20:38 50.91304 13.34518 21395 ft 421 kts 110°
2026-05-06 20:38 50.90421 13.38925 20876 ft 418 kts 110°
2026-05-06 20:38 50.89544 13.43293 20369 ft 414 kts 110°
2026-05-06 20:38 50.88670 13.47636 19870 ft 412 kts 110°
2026-05-06 20:39 50.87803 13.51933 19384 ft 409 kts 110°
2026-05-06 20:39 50.86941 13.56193 18891 ft 406 kts 110°
2026-05-06 20:39 50.86078 13.60446 18430 ft 403 kts 110°
2026-05-06 20:39 50.85207 13.64662 17933 ft 400 kts 112°
2026-05-06 20:40 50.84046 13.68614 17389 ft 393 kts 124°
2026-05-06 20:40 50.82365 13.71943 16856 ft 385 kts 140°
2026-05-06 20:40 50.80191 13.74295 16340 ft 375 kts 158°
2026-05-06 20:40 50.77758 13.75694 15828 ft 370 kts 165°
2026-05-06 20:41 50.75302 13.76862 15321 ft 367 kts 166°
2026-05-06 20:41 50.72882 13.77998 14833 ft 365 kts 166°
2026-05-06 20:41 50.70453 13.79146 14308 ft 363 kts 166°
2026-05-06 20:41 50.68039 13.80291 13713 ft 361 kts 166°
2026-05-06 20:42 50.65645 13.81428 13057 ft 358 kts 166°
2026-05-06 20:42 50.63260 13.82559 12397 ft 355 kts 166°
2026-05-06 20:42 50.60906 13.83677 11760 ft 352 kts 166°
2026-05-06 20:42 50.58570 13.84786 11138 ft 349 kts 166°
2026-05-06 20:43 50.56294 13.85869 10523 ft 329 kts 166°
2026-05-06 20:43 50.54198 13.86868 9942 ft 310 kts 166°
2026-05-06 20:43 50.52189 13.87822 9367 ft 294 kts 166°
2026-05-06 20:43 50.50278 13.88725 8847 ft 281 kts 166°
2026-05-06 20:44 50.48396 13.89609 8418 ft 282 kts 166°
2026-05-06 20:44 50.46524 13.90489 8035 ft 279 kts 166°
2026-05-06 20:44 50.44672 13.91361 7656 ft 276 kts 165°
2026-05-06 20:44 50.42835 13.92228 7286 ft 275 kts 165°
2026-05-06 20:45 50.41000 13.93092 6921 ft 274 kts 165°
2026-05-06 20:45 50.39173 13.93951 6541 ft 274 kts 165°
2026-05-06 20:45 50.37378 13.94797 6275 ft 273 kts 165°
2026-05-06 20:45 50.35563 13.95651 6034 ft 272 kts 165°
2026-05-06 20:46 50.33750 13.96501 5772 ft 271 kts 165°
2026-05-06 20:46 50.31937 13.97350 5521 ft 272 kts 165°
2026-05-06 20:46 50.30125 13.98201 5268 ft 271 kts 164°
2026-05-06 20:46 50.28315 13.99051 5020 ft 271 kts 164°
2026-05-06 20:47 50.26506 13.99899 4830 ft 271 kts 164°
2026-05-06 20:47 50.24699 14.00744 4729 ft 271 kts 164°
2026-05-06 20:47 50.22889 14.01591 4620 ft 272 kts 164°
2026-05-06 20:47 50.21172 14.02856 4475 ft 274 kts 143°
2026-05-06 20:48 50.19916 14.05017 4292 ft 273 kts 123°
2026-05-06 20:48 50.18917 14.07529 3934 ft 271 kts 121°
2026-05-06 20:48 50.17882 14.09918 3558 ft 256 kts 126°
2026-05-06 20:48 50.16812 14.12026 3226 ft 239 kts 127°
2026-05-06 20:49 50.15848 14.14025 2914 ft 222 kts 124°
2026-05-06 20:49 50.14981 14.15864 2662 ft 197 kts 126°
2026-05-06 20:49 50.14185 14.17501 2393 ft 183 kts 125°
2026-05-06 20:49 50.13457 14.19014 2133 ft 165 kts 125°
2026-05-06 20:50 50.12799 14.20386 1900 ft 152 kts 126°
2026-05-06 20:50 50.12184 14.21664 1705 ft 144 kts 128°
2026-05-06 20:50 50.11587 14.22899 1476 ft 142 kts 128°
2026-05-06 20:50 50.10997 14.24124 1300 ft 141 kts 129°
2026-05-06 20:51 50.10412 14.25343 1195 ft 136 kts 130°
2026-05-06 20:51 50.09912 14.26377 1202 ft 102 kts 127°
2026-05-06 20:51 50.09640 14.26948 1218 ft 42 kts 129°
2026-05-06 20:51 50.09477 14.27275 1225 ft 19 kts 126°
2026-05-06 20:52 50.09429 14.27403 1231 ft 11 kts 96°
2026-05-06 20:52 50.09466 14.27478 1232 ft 11 kts 38°
2026-05-06 20:52 50.09546 14.27576 1233 ft 19 kts 38°
2026-05-06 20:52 50.09637 14.27637 1226 ft 17 kts 346°
2026-05-06 20:53 50.09734 14.27497 1221 ft 23 kts 315°
2026-05-06 20:53 50.09865 14.27290 1217 ft 30 kts 312°